Terminal Aerodrome Forecast
Issued by NWS Charleston, WV

Current Version | Previous Version | Text Only | Print | Product List | Glossary Off
Versions: 1 2 3 4 5 6 7 8 9 10 11 12 13 14 15 16 17 18 19 20 21 22

000
FTUS41 KRLX 010532
TAFBKW
TAF
KBKW 010532Z 0106/0206 28014G21KT P6SM BKN050
     FM010800 27011G17KT P6SM BKN030
     FM011000 27010G16KT P6SM BKN035
     FM011200 28011G17KT P6SM BKN030
     FM011800 28010G16KT P6SM OVC035
     FM020200 28007KT P6SM BKN030=

USA.gov is the U.S. government's official web portal to all federal, state and local government web resources and services.